DW4063 Weather Reports


Display with metric or nautical units.
time (UTC)temp
F
wind
direction
speed
MPH
gust
MPH
rain 1hr
in
rain 24hr
in
rain mn
in
humidity
%
barometer
mb
20260904214527 93 263 0.0 4.0 0.00 0.00 0.00 59 1013.2
20260904213021 93 218 1.0 5.0 0.00 0.00 0.00 58 1013.1
20260904211517 94 267 1.0 8.0 0.00 0.00 0.00 57 1013.1
20260904210009 94 187 1.0 5.0 0.00 0.00 0.00 57 1013.1
20260904204533 93 269 2.0 5.0 0.00 0.00 0.00 59 1013.4
20260904203030 93 210 1.0 4.0 0.00 0.00 0.00 59 1013.7
20260904201531 93 209 1.0 5.0 0.00 0.00 0.00 59 1013.9
20260904200028 92 179 1.0 6.0 0.00 0.00 0.00 59 1014.0
20260904194521 91 230 1.0 3.0 0.00 0.00 0.00 60 1014.3
20260904193019 91 213 0.0 6.0 0.00 0.00 0.00 61 1014.6
20260904191536 89 187 0.0 5.0 0.00 0.00 0.00 64 1014.6
20260904190031 88 204 0.0 4.0 0.00 0.00 0.00 68 1014.7
20260904184526 87 59 0.0 7.0 0.00 0.00 0.00 65 1015.0
20260904183027 86 102 0.0 8.0 0.00 0.00 0.00 65 1015.1
20260904181520 85 177 1.0 3.0 0.00 0.00 0.00 68 1015.3
20260904180016 83 47 0.0 4.0 0.00 0.00 0.00 70 1015.9
20260904174532 82 86 1.0 6.0 0.00 0.00 0.00 72 1016.3
20260904173035 82 83 1.0 4.0 0.00 0.00 0.00 73 1016.8
20260904171539 81 109 1.0 5.0 0.00 0.00 0.00 73 1017.2
20260904170027 81 69 1.0 6.0 0.00 0.00 0.00 75 1017.1
20260904164526 81 112 1.0 8.0 0.00 0.00 0.00 75 1017.1
20260904163020 81 96 1.0 9.0 0.00 0.00 0.00 75 1017.4
20260904161531 82 33 1.0 7.0 0.00 0.00 0.00 77 1017.1
20260904160036 82 64 0.0 3.0 0.00 0.00 0.00 80 1016.7
20260904154531 83 98 0.0 3.0 0.00 0.00 0.00 78 1016.7
20260904153039 83 115 0.0 2.0 0.00 0.00 0.00 80 1016.0
20260904151524 83 94 0.0 3.0 0.00 0.00 0.00 81 1016.0
20260904150036 82 66 0.0 3.0 0.00 0.00 0.00 82 1015.8
20260904144534 82 101 0.0 6.0 0.00 0.00 0.00 82 1015.7
20260904143035 81 123 0.0 3.0 0.00 0.00 0.00 83 1015.5
20260904141509 79 259 0.0 1.0 0.00 0.00 0.00 85 1015.6
20260904140006 79 259 0.0 0.0 0.00 0.00 0.00 86 1015.4
20260904134516 79 259 0.0 0.0 0.00 0.00 0.00 89 1015.3
20260904133029 78 259 0.0 0.0 0.00 0.00 0.00 88 1015.3
20260904131520 77 259 0.0 0.0 0.00 0.00 0.00 90 1015.3
20260904130015 76 259 0.0 0.0 0.00 0.00 0.00 91 1015.1
20260904124511 75 259 0.0 0.0 0.00 0.00 0.00 91 1014.7
20260904123009 75 259 0.0 0.0 0.00 0.00 0.00 89 1014.5
20260904121523 75 259 0.0 0.0 0.00 0.00 0.00 88 1014.1
20260904120020 76 259 0.0 0.0 0.00 0.00 0.00 87 1013.8
20260904114527 76 259 0.0 0.0 0.00 0.00 0.00 85 1013.7
20260904113033 77 259 0.0 0.0 0.00 0.00 0.00 83 1013.6
20260904111512 78 259 0.0 1.0 0.00 0.00 0.00 82 1013.4
20260904110011 78 207 0.0 2.0 0.00 0.00 0.00 82 1013.3
20260904104527 77 261 0.0 4.0 0.00 0.00 0.00 84 1013.2
20260904103034 77 234 0.0 3.0 0.00 0.00 0.00 86 1013.1
20260904101527 76 229 1.0 3.0 0.00 0.00 0.00 90 1013.1
20260904100024 75 209 0.0 1.0 0.00 0.00 0.00 93 1013.2
20260904094516 74 205 0.0 2.0 0.00 0.00 0.00 94 1013.3
20260904093012 74 238 0.0 0.0 0.00 0.00 0.00 94 1013.7
20260904091526 74 238 0.0 0.0 0.00 0.00 0.00 94 1014.0
20260904090028 74 238 0.0 0.0 0.00 0.00 0.00 94 1014.1
20260904084528 74 238 0.0 0.0 0.00 0.00 0.00 94 1014.1
20260904083023 75 238 0.0 0.0 0.00 0.00 0.00 94 1014.1
20260904081519 75 238 0.0 0.0 0.00 0.00 0.00 93 1014.0
20260904080015 75 238 0.0 0.0 0.00 0.00 0.00 93 1013.5
20260904074553 75 238 0.0 0.0 0.00 0.00 0.00 94 1013.4
20260904073030 75 238 0.0 0.0 0.00 0.00 0.00 93 1013.2
20260904071535 75 238 0.0 0.0 0.00 0.00 0.00 93 1013.3
20260904070026 75 238 0.0 0.0 0.00 0.00 0.00 93 1013.5
20260904064521 75 238 0.0 0.0 0.00 0.00 0.00 93 1013.9
20260904063033 75 238 0.0 0.0 0.00 0.00 0.00 93 1014.3
20260904061529 76 238 0.0 0.0 0.00 0.00 0.00 93 1014.4
20260904060035 76 238 0.0 0.0 0.00 0.00 0.00 93 1014.5
20260904054532 76 238 0.0 0.0 0.00 0.00 0.00 93 1014.6
20260904053036 76 238 0.0 0.0 0.00 0.00 0.00 93 1014.6
20260904051534 77 238 0.0 0.0 0.00 0.00 0.00 93 1014.5
20260904050032 77 238 0.0 0.0 0.00 0.00 0.00 93 1014.4
20260904044518 77 238 0.0 0.0 0.00 0.00 0.00 92 1014.4
20260904043013 77 238 0.0 0.0 0.00 0.00 0.00 92 1014.4
20260904041507 77 238 0.0 0.0 0.00 0.00 0.00 92 1014.4
20260904040007 77 238 0.0 0.0 0.00 0.00 0.00 92 1014.4
20260904034531 77 238 0.0 0.0 0.00 0.00 0.00 92 1014.5
20260904033023 77 238 0.0 0.0 0.00 0.00 0.00 91 1014.6
20260904031519 77 238 0.0 0.0 0.00 0.00 0.00 91 1014.6
20260904030014 77 238 0.0 0.0 0.00 0.00 0.00 90 1014.7
20260904024510 77 238 0.0 0.0 0.00 0.00 0.00 90 1014.6
20260904023031 77 238 0.0 0.0 0.00 0.00 0.00 89 1014.5
20260904021538 78 238 0.0 0.0 0.00 0.00 0.00 89 1014.5
20260904020025 78 238 0.0 0.0 0.00 0.00 0.00 89 1014.4
20260904014524 79 238 0.0 0.0 0.00 0.00 0.00 88 1014.2
20260904013015 79 238 0.0 0.0 0.00 0.00 0.00 87 1014.2
20260904011521 80 238 0.0 0.0 0.00 0.00 0.00 86 1013.9
20260904010032 81 238 0.0 0.0 0.00 0.00 0.00 85 1013.3
20260904004534 82 238 0.0 0.0 0.00 0.00 0.00 82 1013.1
20260904003032 83 238 0.0 0.0 0.00 0.00 0.00 80 1012.9
20260904001523 84 238 0.0 0.0 0.00 0.00 0.00 78 1013.0
20260904000101 86 238 0.0 0.0 0.00 0.00 0.00 76 1013.1
20260903234516 87 238 0.0 0.0 0.00 0.00 0.00 72 1013.2
20260903233035 89 238 0.0 1.0 0.00 0.00 0.00 69 1013.2
20260903231532 91 235 0.0 2.0 0.00 0.00 0.00 65 1013.3
20260903230034 92 233 0.0 7.0 0.00 0.00 0.00 56 1013.4
20260903224538 93 271 0.0 4.0 0.00 0.00 0.00 55 1013.5
20260903223023 93 215 0.0 4.0 0.00 0.00 0.00 56 1013.4
20260903221519 94 213 0.0 1.0 0.00 0.00 0.00 62 1013.7
20260903220036 95 213 0.0 1.0 0.00 0.00 0.00 55 1013.6